| time (UTC) | temp C | wind direction | speed KPH | gust KPH | rain 1hr cm | rain 24hr cm | rain mn cm | humidity % | barometer mb |
| 20260504175538 | 9 | 0 | 0.0 | 0.0 | 0.00 | 0.18 | 0.18 | 92 | 1005.8 |
| 20260504175037 | 9 | 0 | 0.0 | 4.8 | 0.00 | 0.18 | 0.18 | 91 | 1005.7 |
| 20260504174544 | 10 | 0 | 0.0 | 4.8 | 0.00 | 0.18 | 0.18 | 90 | 1005.6 |
| 20260504174037 | 10 | 0 | 0.0 | 3.2 | 0.00 | 0.18 | 0.18 | 87 | 1005.6 |
| 20260504173536 | 10 | 0 | 0.0 | 4.8 | 0.00 | 0.18 | 0.18 | 89 | 1005.7 |
| 20260504173047 | 9 | 0 | 0.0 | 4.8 | 0.00 | 0.18 | 0.18 | 85 | 1005.7 |
| 20260504172536 | 9 | 20 | 0.0 | 4.8 | 0.00 | 0.18 | 0.18 | 90 | 1005.9 |
| 20260504172039 | 8 | 0 | 0.0 | 3.2 | 0.00 | 0.18 | 0.18 | 90 | 1006.0 |
| 20260504171549 | 9 | 0 | 0.0 | 3.2 | 0.00 | 0.18 | 0.18 | 89 | 1005.9 |
| 20260504171037 | 9 | 360 | 0.0 | 4.8 | 0.00 | 0.18 | 0.18 | 88 | 1005.7 |
| 20260504170537 | 9 | 0 | 0.0 | 4.8 | 0.00 | 0.18 | 0.18 | 89 | 1005.8 |
| 20260504151035 | 8 | 206 | 0.0 | 6.4 | 0.05 | 0.10 | 0.10 | 86 | 1005.8 |
| 20260504150535 | 8 | 294 | 1.6 | 8.0 | 0.05 | 0.10 | 0.10 | 85 | 1005.9 |
| 20260504141038 | 10 | 148 | 1.6 | 11.3 | 0.00 | 0.05 | 0.05 | 73 | 1005.0 |
| 20260504140535 | 10 | 0 | 3.2 | 12.9 | 0.00 | 0.05 | 0.05 | 76 | 1004.9 |
| 20260504130537 | 8 | 182 | 3.2 | 17.7 | 0.00 | 0.05 | 0.05 | 80 | 1005.4 |
| 20260504110535 | 3 | 0 | 0.0 | 1.6 | 0.05 | 0.05 | 0.05 | 91 | 1006.5 |
| 20260504100536 | 3 | 0 | 0.0 | 4.8 | 0.00 | 0.00 | 0.00 | 85 | 1006.5 |
| 20260504081540 | 0 | 0 | 0.0 | 0.0 | 0.00 | 0.00 | 0.00 | 90 | 1006.6 |
| 20260504081035 | 0 | 0 | 0.0 | 0.0 | 0.00 | 0.00 | 0.00 | 90 | 1006.6 |
| 20260504080534 | 0 | 0 | 0.0 | 0.0 | 0.00 | 0.00 | 0.00 | 89 | 1006.6 |
| 20260504050535 | -2 | 0 | 0.0 | 0.0 | 0.00 | 0.00 | 0.00 | 89 | 1006.8 |
| 20260504045535 | -2 | 0 | 0.0 | 0.0 | 0.00 | 0.00 | 0.00 | 89 | 1006.9 |
| 20260504045035 | -2 | 0 | 0.0 | 0.0 | 0.00 | 0.00 | 0.00 | 89 | 1006.9 |
| 20260504044549 | -2 | 0 | 0.0 | 0.0 | 0.00 | 0.00 | 0.00 | 89 | 1006.9 |
| 20260504044036 | -1 | 0 | 0.0 | 0.0 | 0.00 | 0.00 | 0.00 | 89 | 1007.0 |
| 20260504043536 | -1 | 0 | 0.0 | 0.0 | 0.00 | 0.00 | 0.00 | 89 | 1007.1 |
| 20260504043050 | -1 | 0 | 0.0 | 0.0 | 0.00 | 0.00 | 0.00 | 89 | 1007.0 |
| 20260504042535 | -1 | 0 | 0.0 | 0.0 | 0.00 | 0.00 | 0.00 | 88 | 1007.0 |
| 20260504042036 | -1 | 0 | 0.0 | 0.0 | 0.00 | 0.00 | 0.00 | 88 | 1007.1 |
| 20260504041545 | -1 | 0 | 0.0 | 0.0 | 0.00 | 0.00 | 0.00 | 88 | 1007.1 |
| 20260504041035 | -1 | 0 | 0.0 | 0.0 | 0.00 | 0.00 | 0.00 | 88 | 1007.1 |
| 20260504040537 | -1 | 0 | 0.0 | 0.0 | 0.00 | 0.00 | 0.00 | 88 | 1007.2 |
| 20260504040048 | -1 | 0 | 0.0 | 0.0 | 0.00 | 0.00 | 0.00 | 88 | 1007.1 |
| 20260504035536 | -1 | 0 | 0.0 | 0.0 | 0.00 | 0.00 | 0.00 | 88 | 1007.0 |
| 20260504035036 | -1 | 0 | 0.0 | 0.0 | 0.00 | 0.00 | 0.00 | 88 | 1007.0 |
| 20260504034554 | -1 | 0 | 0.0 | 0.0 | 0.00 | 0.00 | 0.00 | 88 | 1007.0 |
| 20260504034039 | -1 | 0 | 0.0 | 1.6 | 0.00 | 0.00 | 0.00 | 88 | 1006.9 |
| 20260504033535 | -1 | 0 | 0.0 | 1.6 | 0.00 | 0.00 | 0.00 | 88 | 1006.9 |
| 20260504033055 | -1 | 0 | 0.0 | 0.0 | 0.00 | 0.00 | 0.00 | 88 | 1007.0 |
| 20260504032537 | -1 | 0 | 0.0 | 0.0 | 0.00 | 0.00 | 0.00 | 87 | 1007.0 |
| 20260504032035 | -1 | 0 | 0.0 | 0.0 | 0.00 | 0.00 | 0.00 | 88 | 1007.2 |
| 20260504031602 | -1 | 0 | 0.0 | 0.0 | 0.00 | 0.00 | 0.00 | 87 | 1007.1 |
| 20260504031035 | -1 | 0 | 0.0 | 0.0 | 0.00 | 0.00 | 0.00 | 87 | 1007.0 |
| 20260504030535 | -1 | 0 | 0.0 | 0.0 | 0.00 | 0.00 | 0.00 | 87 | 1007.0 |
| 20260504030111 | -1 | 0 | 0.0 | 0.0 | 0.00 | 0.00 | 0.00 | 87 | 1007.1 |
| 20260504025537 | -1 | 0 | 0.0 | 0.0 | 0.00 | 0.03 | 0.00 | 87 | 1007.1 |
| 20260504025037 | -1 | 0 | 0.0 | 0.0 | 0.00 | 0.03 | 0.00 | 87 | 1007.2 |
| 20260504024550 | -1 | 0 | 0.0 | 0.0 | 0.00 | 0.03 | 0.00 | 87 | 1007.0 |
| 20260504024037 | -1 | 0 | 0.0 | 0.0 | 0.00 | 0.03 | 0.00 | 87 | 1007.0 |
| 20260504023537 | 0 | 0 | 0.0 | 0.0 | 0.00 | 0.03 | 0.00 | 87 | 1007.1 |
| 20260504023053 | 0 | 0 | 0.0 | 0.0 | 0.00 | 0.03 | 0.00 | 87 | 1007.1 |
| 20260504022538 | 0 | 0 | 0.0 | 0.0 | 0.00 | 0.03 | 0.00 | 86 | 1007.2 |
| 20260504022037 | 0 | 0 | 0.0 | 0.0 | 0.00 | 0.03 | 0.00 | 86 | 1007.2 |
| 20260504021545 | 0 | 0 | 0.0 | 0.0 | 0.00 | 0.03 | 0.00 | 86 | 1007.2 |
| 20260504021038 | 0 | 0 | 0.0 | 0.0 | 0.00 | 0.03 | 0.00 | 86 | 1007.2 |
| 20260504020537 | 0 | 0 | 0.0 | 0.0 | 0.00 | 0.03 | 0.00 | 85 | 1007.2 |
| 20260504020047 | 0 | 0 | 0.0 | 0.0 | 0.00 | 0.03 | 0.00 | 85 | 1007.2 |
| 20260504015537 | 0 | 0 | 0.0 | 0.0 | 0.00 | 0.03 | 0.00 | 85 | 1007.2 |
| 20260504015039 | 0 | 0 | 0.0 | 0.0 | 0.00 | 0.03 | 0.00 | 85 | 1007.2 |
| 20260504014549 | 0 | 0 | 0.0 | 0.0 | 0.00 | 0.03 | 0.00 | 85 | 1007.2 |
| 20260504014037 | 0 | 0 | 0.0 | 0.0 | 0.00 | 0.03 | 0.00 | 85 | 1007.2 |
| 20260504013538 | 0 | 0 | 0.0 | 0.0 | 0.00 | 0.03 | 0.00 | 84 | 1007.2 |
| 20260504013049 | 0 | 0 | 0.0 | 0.0 | 0.00 | 0.03 | 0.00 | 84 | 1007.2 |
| 20260504012537 | 0 | 0 | 0.0 | 0.0 | 0.00 | 0.03 | 0.00 | 84 | 1007.1 |
| 20260504012036 | 0 | 0 | 0.0 | 0.0 | 0.00 | 0.03 | 0.00 | 83 | 1007.0 |
| 20260504011549 | 0 | 0 | 0.0 | 0.0 | 0.00 | 0.03 | 0.00 | 83 | 1007.0 |
| 20260504011039 | 0 | 0 | 0.0 | 0.0 | 0.00 | 0.03 | 0.00 | 82 | 1007.1 |
| 20260504010536 | 0 | 0 | 0.0 | 0.0 | 0.00 | 0.03 | 0.00 | 82 | 1007.0 |
| 20260504010047 | 1 | 0 | 0.0 | 0.0 | 0.00 | 0.03 | 0.00 | 82 | 1007.0 |
| 20260504005537 | 1 | 0 | 0.0 | 0.0 | 0.00 | 0.03 | 0.00 | 82 | 1006.9 |
| 20260504005041 | 1 | 0 | 0.0 | 0.0 | 0.00 | 0.03 | 0.00 | 82 | 1006.9 |
| 20260504004545 | 1 | 0 | 0.0 | 0.0 | 0.00 | 0.03 | 0.00 | 81 | 1006.9 |
| 20260504004035 | 1 | 0 | 0.0 | 0.0 | 0.00 | 0.03 | 0.00 | 81 | 1006.9 |
| 20260504003538 | 1 | 0 | 0.0 | 0.0 | 0.00 | 0.03 | 0.00 | 80 | 1006.8 |
| 20260504003048 | 1 | 0 | 0.0 | 0.0 | 0.00 | 0.03 | 0.00 | 80 | 1006.8 |
| 20260504002536 | 1 | 0 | 0.0 | 0.0 | 0.00 | 0.03 | 0.00 | 79 | 1006.8 |
| 20260504002035 | 2 | 0 | 0.0 | 1.6 | 0.00 | 0.03 | 0.00 | 78 | 1006.8 |
| 20260504001553 | 2 | 0 | 0.0 | 1.6 | 0.00 | 0.03 | 0.00 | 78 | 1006.8 |
| 20260504001036 | 2 | 0 | 0.0 | 0.0 | 0.00 | 0.03 | 0.00 | 77 | 1006.7 |
| 20260504000536 | 2 | 0 | 0.0 | 1.6 | 0.00 | 0.03 | 0.00 | 75 | 1006.7 |
| 20260504000118 | 3 | 0 | 0.0 | 1.6 | 0.00 | 0.03 | 0.00 | 74 | 1006.7 |
| 20260503235536 | 3 | 0 | 0.0 | 3.2 | 0.00 | 0.03 | 0.00 | 72 | 1006.6 |
| 20260503235037 | 3 | 0 | 0.0 | 3.2 | 0.00 | 0.03 | 0.00 | 70 | 1006.6 |
| 20260503234550 | 4 | 0 | 0.0 | 3.2 | 0.00 | 0.03 | 0.00 | 66 | 1006.6 |
| 20260503234036 | 5 | 0 | 0.0 | 1.6 | 0.00 | 0.03 | 0.00 | 65 | 1006.6 |
| 20260503233535 | 5 | 0 | 0.0 | 1.6 | 0.00 | 0.03 | 0.00 | 64 | 1006.6 |
| 20260503233046 | 6 | 0 | 0.0 | 1.6 | 0.00 | 0.03 | 0.00 | 64 | 1006.6 |
| 20260503232535 | 6 | 0 | 0.0 | 3.2 | 0.00 | 0.03 | 0.00 | 62 | 1006.5 |
| 20260503232035 | 6 | 0 | 0.0 | 3.2 | 0.00 | 0.03 | 0.00 | 59 | 1006.6 |
| 20260503231548 | 7 | 0 | 0.0 | 3.2 | 0.00 | 0.03 | 0.00 | 59 | 1006.4 |
| 20260503231036 | 7 | 302 | 0.0 | 4.8 | 0.00 | 0.03 | 0.00 | 58 | 1006.5 |
| 20260503230536 | 7 | 0 | 0.0 | 4.8 | 0.00 | 0.03 | 0.00 | 58 | 1006.5 |
| 20260503230050 | 7 | 233 | 0.0 | 4.8 | 0.00 | 0.03 | 0.00 | 56 | 1006.5 |
| 20260503225536 | 7 | 0 | 0.0 | 4.8 | 0.00 | 0.03 | 0.00 | 57 | 1006.5 |
| 20260503225037 | 7 | 267 | 0.0 | 6.4 | 0.00 | 0.03 | 0.00 | 56 | 1006.5 |
| 20260503224543 | 7 | 0 | 1.6 | 6.4 | 0.00 | 0.03 | 0.00 | 55 | 1006.5 |
| 20260503224036 | 7 | 321 | 1.6 | 6.4 | 0.00 | 0.03 | 0.00 | 55 | 1006.5 |
| 20260503223536 | 7 | 325 | 1.6 | 6.4 | 0.00 | 0.03 | 0.00 | 55 | 1006.4 |
| 20260503223051 | 7 | 0 | 0.0 | 9.7 | 0.00 | 0.03 | 0.00 | 58 | 1006.4 |
| 20260503222535 | 7 | 0 | 3.2 | 9.7 | 0.00 | 0.03 | 0.00 | 57 | 1006.4 |
| 20260503222035 | 7 | 0 | 1.6 | 12.9 | 0.00 | 0.03 | 0.00 | 56 | 1006.5 |
| 20260503221548 | 7 | 0 | 3.2 | 12.9 | 0.00 | 0.03 | 0.00 | 55 | 1006.4 |
| 20260503221037 | 7 | 63 | 3.2 | 11.3 | 0.00 | 0.03 | 0.00 | 57 | 1006.3 |
| 20260503220536 | 7 | 269 | 0.0 | 11.3 | 0.00 | 0.03 | 0.00 | 57 | 1006.3 |
| 20260503220053 | 7 | 242 | 1.6 | 8.0 | 0.00 | 0.03 | 0.00 | 58 | 1006.4 |
| 20260503215536 | 7 | 0 | 3.2 | 9.7 | 0.00 | 0.03 | 0.00 | 57 | 1006.4 |
| 20260503215038 | 7 | 0 | 1.6 | 11.3 | 0.00 | 0.03 | 0.00 | 57 | 1006.4 |
| 20260503214545 | 7 | 246 | 0.0 | 12.9 | 0.00 | 0.03 | 0.00 | 59 | 1006.5 |
| 20260503214036 | 7 | 300 | 3.2 | 12.9 | 0.00 | 0.03 | 0.00 | 57 | 1006.6 |
| 20260503213536 | 6 | 296 | 1.6 | 12.9 | 0.00 | 0.03 | 0.00 | 57 | 1006.5 |
| 20260503213047 | 6 | 310 | 1.6 | 12.9 | 0.00 | 0.03 | 0.00 | 58 | 1006.5 |
| 20260503212539 | 6 | 264 | 1.6 | 9.7 | 0.00 | 0.03 | 0.00 | 56 | 1006.5 |
| 20260503212035 | 6 | 272 | 1.6 | 11.3 | 0.00 | 0.03 | 0.00 | 59 | 1006.5 |
| 20260503211547 | 6 | 337 | 0.0 | 12.9 | 0.00 | 0.03 | 0.00 | 58 | 1006.5 |
| 20260503211035 | 6 | 333 | 1.6 | 16.1 | 0.00 | 0.03 | 0.00 | 58 | 1006.5 |
| 20260503210535 | 6 | 285 | 4.8 | 20.9 | 0.00 | 0.03 | 0.00 | 57 | 1006.4 |
| 20260503210049 | 6 | 347 | 6.4 | 20.9 | 0.00 | 0.03 | 0.00 | 56 | 1006.4 |
| 20260503205535 | 6 | 51 | 4.8 | 12.9 | 0.00 | 0.03 | 0.00 | 56 | 1006.4 |
| 20260503205038 | 6 | 334 | 4.8 | 16.1 | 0.00 | 0.03 | 0.00 | 56 | 1006.3 |
| 20260503204547 | 7 | 168 | 3.2 | 16.1 | 0.00 | 0.03 | 0.00 | 57 | 1006.4 |
| 20260503204035 | 7 | 333 | 4.8 | 14.5 | 0.00 | 0.03 | 0.00 | 55 | 1006.4 |
| 20260503203535 | 7 | 324 | 3.2 | 9.7 | 0.00 | 0.03 | 0.00 | 59 | 1006.4 |
| 20260503203047 | 6 | 345 | 3.2 | 11.3 | 0.00 | 0.03 | 0.00 | 61 | 1006.2 |
| 20260503202535 | 6 | 322 | 3.2 | 14.5 | 0.00 | 0.03 | 0.00 | 60 | 1006.3 |
| 20260503202035 | 6 | 301 | 3.2 | 17.7 | 0.00 | 0.03 | 0.00 | 59 | 1006.3 |
| 20260503201547 | 6 | 15 | 6.4 | 17.7 | 0.00 | 0.03 | 0.00 | 61 | 1006.3 |
| 20260503201038 | 6 | 345 | 3.2 | 11.3 | 0.00 | 0.03 | 0.00 | 65 | 1006.3 |
| 20260503200535 | 6 | 19 | 0.0 | 14.5 | 0.00 | 0.03 | 0.00 | 66 | 1006.4 |
| 20260503200046 | 6 | 275 | 3.2 | 14.5 | 0.00 | 0.03 | 0.00 | 63 | 1006.4 |
| 20260503195536 | 6 | 334 | 4.8 | 14.5 | 0.00 | 0.03 | 0.00 | 65 | 1006.5 |
| 20260503195035 | 5 | 0 | 0.0 | 11.3 | 0.00 | 0.03 | 0.00 | 67 | 1006.5 |
| 20260503194541 | 5 | 289 | 1.6 | 25.7 | 0.00 | 0.03 | 0.00 | 66 | 1006.6 |
| 20260503194035 | 6 | 301 | 6.4 | 25.7 | 0.00 | 0.03 | 0.00 | 61 | 1006.7 |
| 20260503193536 | 6 | 245 | 8.0 | 25.7 | 0.00 | 0.03 | 0.00 | 61 | 1006.9 |
| 20260503193044 | 7 | 342 | 4.8 | 19.3 | 0.00 | 0.03 | 0.00 | 58 | 1006.6 |
| 20260503192535 | 7 | 238 | 6.4 | 19.3 | 0.00 | 0.03 | 0.00 | 56 | 1006.5 |
| 20260503192036 | 7 | 298 | 6.4 | 19.3 | 0.00 | 0.03 | 0.00 | 57 | 1006.5 |
| 20260503191542 | 7 | 345 | 6.4 | 29.0 | 0.00 | 0.03 | 0.00 | 56 | 1006.5 |
| 20260503191036 | 6 | 82 | 4.8 | 29.0 | 0.00 | 0.03 | 0.00 | 57 | 1006.6 |
| 20260503190535 | 6 | 256 | 11.3 | 29.0 | 0.00 | 0.03 | 0.00 | 57 | 1006.7 |
| 20260503190041 | 6 | 309 | 6.4 | 19.3 | 0.00 | 0.03 | 0.00 | 56 | 1006.6 |
| 20260503185535 | 7 | 0 | 3.2 | 17.7 | 0.00 | 0.15 | 0.00 | 56 | 1006.5 |
| 20260503185037 | 7 | 35 | 6.4 | 17.7 | 0.00 | 0.15 | 0.00 | 54 | 1006.4 |
| 20260503184603 | 7 | 322 | 4.8 | 16.1 | 0.00 | 0.15 | 0.00 | 56 | 1006.4 |
| 20260503184036 | 7 | 324 | 1.6 | 20.9 | 0.00 | 0.15 | 0.00 | 52 | 1006.4 |
| 20260503183536 | 7 | 275 | 8.0 | 20.9 | 0.00 | 0.15 | 0.00 | 52 | 1006.6 |
| 20260503183050 | 7 | 277 | 6.4 | 20.9 | 0.00 | 0.15 | 0.00 | 52 | 1006.6 |
| 20260503182535 | 7 | 331 | 3.2 | 20.9 | 0.00 | 0.15 | 0.00 | 52 | 1006.6 |
| 20260503182035 | 6 | 329 | 8.0 | 29.0 | 0.00 | 0.15 | 0.00 | 50 | 1006.6 |
| 20260503181548 | 6 | 306 | 11.3 | 29.0 | 0.00 | 0.15 | 0.00 | 49 | 1006.7 |
| 20260503181035 | 6 | 333 | 4.8 | 20.9 | 0.00 | 0.15 | 0.00 | 53 | 1006.7 |
| 20260503180536 | 6 | 360 | 9.7 | 25.7 | 0.00 | 0.15 | 0.00 | 52 | 1006.7 |
| 20260503180045 | 6 | 355 | 6.4 | 25.7 | 0.00 | 0.15 | 0.00 | 57 | 1006.8 |